Location: Mapua
(41.2500°S, 173.1000°E)
Time: 15:13:14
(UTC+12:00)

ISS - Visible Passes

Search period start: 16 July 2018 00:00
Search period end: 26 July 2018 00:00
Orbit: 402 x 408 km, 51.6° (Epoch: 16 July)

Date Brightness Start Highest point End Pass type
(mag) Time Alt. Az. Time Alt. Az. Time Alt. Az.
16 Jul -2.2 18:07:07 10° WSW 18:10:14 37° NW 18:13:20 10° NNE visible
18 Jul -0.6 18:00:13 10° W 18:02:19 16° NW 18:04:25 10° N visible
23 Jul -0.2 07:12:45 10° NNE 07:14:06 12° NE 07:15:27 10° ENE visible
25 Jul -1.5 07:03:04 10° NNW 07:05:57 28° NE 07:08:53 10° ESE visible
